Find Starlink 30146

NORAD ID: 57442 Int'l Des: 2023-105 Owner: SPXS Country: US Constellation: starlink operational
LEOCIRCULAR

現在のビュー

3D地球を読み込み中...

About Starlink 30146

Starlink 30146 (NORAD 57442) is a starlink constellation satellite (v2 mini) launched Jul 24, 2023 by SPXS of US. It operates in LEO, CIRCULAR orbit with a mass of 730.00 kg.

次回通過

Passes for default location (London). Set your location on the main map for personalized predictions.

高度履歴

Loading altitude history...

軌道要素

1 57442U 23105N 26264.93656373 .00000233 00000-0 17986-4 0 9998
2 57442 43.0009 231.6863 0001120 266.9848 93.0876 15.27579005175654
Epoch: Sep 21, 2026 • Age: 7 hours

現在のステータス

高度 486.9 km
遠地点 / 近地点 N/A
速度 7.63 km/s
衛星直下点 43.03°N, 113.04°W
打ち上げ日 Jul 24, 2023
運用期間 3.1 years
タイプ internet

技術仕様

分類 Payload
質量 730.00 kg
乾燥質量 700.00 kg
長さ 0.30 m
スパン 29.00 m
形状 ? Box + pan
製造者 SPXS
バスタイプ Starlink V2M
フェーズステータス In Orbit
所有者/国 SPXS/US

Most Searched